Regional Weather Roundup
Issued by NWS

Home | Current Version | Previous Version | Text Only | Print | Product List | Glossary Off
Versions: 1 2 3 4 5 6 7 8 9 10 11 12 13 14 15 16 17 18 19 20 21 22 23 24 25 26 27 28 29 30 31 32 33 34 35 36 37 38 39 40 41 42 43 44 45 46 47 48 49 50

000
ASUS43 KBIS 190410
RWRND

NORTH DAKOTA REGIONAL WEATHER ROUNDUP
NATIONAL WEATHER SERVICE BISMARCK ND
1000 PM CST WED JAN 18 2017

NOTE: "FAIR" INDICATES FEW OR NO CLOUDS BELOW 12,000 FEET WITH NO
SIGNIFICANT WEATHER AND/OR OBSTRUCTIONS TO VISIBILITY.


NDZ001>003-009>011-017-190500-
NORTHWEST NORTH DAKOTA

CITY           SKY/WX    TMP DP  RH WIND       PRES   REMARKS
WILLISTON      FAIR      26  22  84 S5        29.52F
MINOT          FAIR      38  27  64 SW18      29.50F
$$

NDZ018>021-031>035-040>046-190500-
SOUTHWEST NORTH DAKOTA

CITY           SKY/WX    TMP DP  RH WIND       PRES   REMARKS
BISMARCK       FAIR      22  17  81 E5        29.61F WCI  16
DICKINSON      FAIR      30  22  72 S6        29.53F
GARRISON         N/A     23  20  88 S5        29.55F WCI  17
HETTINGER ARPT CLOUDY    28  20  71 CALM      29.58F
$$

NDZ004>008-012>016-024-026-027-054-190500-
NORTHEAST NORTH DAKOTA

CITY           SKY/WX    TMP DP  RH WIND       PRES   REMARKS
GRAND FORKS    CLOUDY    27  20  75 S15       29.64F WCI  15
GRND FRKS AFB  CLOUDY    27  22  82 S15       29.62F WCI  15
DEVILS LAKE    FAIR      33  24  69 S8        29.58F
$$

NDZ022-023-025-028>030-036>039-047>053-190500-
SOUTHEAST NORTH DAKOTA

CITY           SKY/WX    TMP DP  RH WIND       PRES   REMARKS
FARGO          CLOUDY    31  25  78 S12       29.70F
JAMESTOWN      FAIR      27  21  78 S7        29.62F WCI  19
$$




USA.gov is the U.S. government's official web portal to all federal, state and local government web resources and services.